Simultaneous Nadir Overpasses (SNOs) Predictions

Prediction of SNOs between FY3D and NOAA-19 Satellite Orbit:

Table of predicted SNOs for the next 14.0 days since TLE Epoch: 1/9/2021
Index Date (FY3D) Time (FY3D) Lat,Lon (FY3D) SZA (FY3D ) Date (NOAA-19) Time (NOAA-19) Lat,Lon (NOAA-19) SZA (NOAA-19 ) Distance(km) Time Diff (sec)
1 01/19/2021 16:56:04 -78.84, 78.36 79.59 01/19/2021 16:54:52 -78.83, 78.24 79.56 3.04 72
2 01/19/2021 17:46:49 78.83,-114.25 100.39 01/19/2021 17:45:56 78.86,-114.28 100.44 3.59 53
3 01/19/2021 18:37:33 -78.84, 52.99 79.60 01/19/2021 18:36:52 -78.84, 52.85 79.57 2.96 41
4 01/19/2021 19:28:19 78.87,-139.86 100.43 01/19/2021 19:27:57 78.84,-139.92 100.42 2.87 22
5 01/19/2021 20:19:03 -78.88, 27.37 79.56 01/19/2021 20:18:52 -78.86, 27.46 79.59 3.05 11
6 01/19/2021 21:09:48 78.87,-165.24 100.42 01/19/2021 21:09:57 78.86,-165.31 100.41 1.80 9
7 01/19/2021 22:00:32 -78.88, 2.00 79.58 01/19/2021 22:00:52 -78.87, 2.07 79.60 1.75 20
8 01/19/2021 22:51:17 78.87, 169.39 100.40 01/19/2021 22:51:57 78.87, 169.31 100.40 1.91 40
9 01/19/2021 23:42:01 -78.88, -23.37 79.59 01/19/2021 23:42:52 -78.89, -23.31 79.61 1.49 51
10 01/20/2021 00:32:45 78.87, 144.02 100.39 01/20/2021 00:33:56 78.89, 143.92 100.39 3.07 71



Historial Predications of SNOs between FY3D and NOAA-19
